Home   Weather   Qyzylorda   Past weeks

Flag for Kazakhstan Past Weather in Qyzylorda, Kazakhstan — Yesterday and Last 2 Weeks

Now
16 °F

Clear.


Feels Like: 5 °F
Forecast: 14 / 25 °F
Wind: 8 mph from East

Location: Kzyl-Orda

Current Time: Jan 16, 2017 at 11:42:31 pm

Latest Report: Jan 16, 2017 at 11:00 pm


Visibility: 10 mi

Pressure: 30.33 "Hg

Humidity: 86%

Dew Point: 12 °F

Location of QyzylordaLocation

Past Weather in Qyzylorda — Graph

°F

Qyzylorda Temperature Yesterday

Maximum temperature yesterday: 25 °F (at 3:30 pm)
Minimum temperature yesterday: 12 °F (at 8:30 am)
Average temperature yesterday: 18 °F

High & Low Weather Summary for the Past Weeks

 TemperatureHumidityPressure
High36 °F (Jan 5, 1:30 pm)100% (Jan 1, 10:00 pm)32.55 "Hg (Jan 1, 10:00 pm)
Low12 °F (Jan 15, 8:30 am)63% (Jan 16, 1:30 pm)29.92 "Hg (Jan 2, 3:00 pm)
Average26 °F93%30.29 "Hg
* Reported Jan 1 10:00 pm — Jan 16 10:00 pm, Qyzylorda, Weather by CustomWeather, © 2017

Note: Actual official high and low records may vary slightly from our data, if they occured in-between our weather recording intervals... More about our weather records

Advertising

Qyzylorda Weather History for the Previous 24 Hours

Scroll right to see more
 ConditionsComfort  
Time TempWeatherWind HumidityBarometerVisibility
10:00 pm
Mon, Jan 16
16 °FClear.8 mph86%30.33 "Hg10 mi
9:00 pm18 °FClear.8 mph79%30.33 "Hg10 mi
8:00 pm19 °FClear.10 mph73%30.33 "Hg10 mi
7:00 pm21 °FSunny.8 mph68%30.33 "Hg10 mi
6:30 pm21 °FSunny.10 mph74%30.33 "Hg10 mi
6:00 pm21 °FSunny.10 mph74%30.33 "Hg10 mi
5:30 pm23 °FSunny.10 mph68%30.33 "Hg10 mi
5:00 pm23 °FSunny.10 mph74%30.33 "Hg10 mi
4:30 pm23 °FPassing clouds.10 mph74%30.33 "HgN/A
4:00 pm23 °FSunny.10 mph68%30.30 "Hg10 mi
3:30 pm25 °FPassing clouds.10 mph63%30.30 "HgN/A
3:00 pm23 °FSunny.10 mph68%30.30 "Hg10 mi
2:30 pm23 °FPassing clouds.8 mph68%30.30 "HgN/A
2:00 pm23 °FSunny.10 mph68%30.30 "Hg10 mi
1:30 pm23 °FSunny.13 mph63%30.30 "Hg10 mi
1:00 pm21 °FSunny.13 mph68%30.30 "Hg10 mi
12:30 pm19 °FSunny.13 mph73%30.30 "Hg10 mi
12:00 pm19 °FSunny.15 mph68%30.30 "Hg10 mi
11:30 am18 °FSunny.15 mph73%30.33 "Hg10 mi
11:00 am16 °FSunny.15 mph79%30.30 "Hg10 mi
10:30 am16 °FSunny.13 mph79%30.30 "Hg10 mi
10:00 am14 °FClear.13 mph85%30.30 "Hg10 mi
9:30 am14 °FClear.13 mph79%30.30 "Hg10 mi
9:00 am14 °FClear.13 mph85%30.30 "Hg10 mi
8:30 am14 °FClear.13 mph85%30.30 "Hg10 mi
8:00 am14 °FClear.10 mph85%30.30 "Hg10 mi
7:30 am14 °FClear.13 mph85%30.30 "Hg10 mi
7:00 am16 °FClear.13 mph79%30.33 "Hg10 mi
6:00 am16 °FClear.10 mph79%30.33 "Hg10 mi
5:30 am16 °FClear.10 mph79%30.33 "Hg10 mi
5:00 am16 °FClear.10 mph86%30.30 "Hg10 mi
4:00 am16 °FClear.8 mph86%30.30 "Hg10 mi
3:00 am18 °FClear.13 mph79%30.30 "Hg10 mi
2:00 am18 °FClear.10 mph86%30.30 "Hg10 mi
1:00 am18 °FClear.10 mph86%30.30 "Hg10 mi
12:00 am19 °FClear.13 mph79%30.30 "Hg10 mi
11:00 pm
Sun, Jan 15
19 °FClear.13 mph79%30.30 "Hg10 mi
Weather by CustomWeather, © 2017

See weather overviewHow to use our weather pages